User: anonymous   Login
Location: Unspecified
(42.3650°N, 71.1030°W)
Time: 06:30:30
(UTC+00:00)
Language:

ZACube-1 - Orbit

View from above orbital plane
View from above orbital plane
View from above satellite
View from above satellite

Ground track
Ground track

The orbit data is extracted from the following two-line orbital elements,

1 39417U 13066B   24197.87378901  .00007439  00000-0  76521-3 0  9993
2 39417  97.7343 153.2054 0052016  66.6764 293.9915 14.89583939575855
Epoch (UTC): 15 July 2024 20:58:15
Eccentricity: 0.0052016
inclination: 97.7343°
perigee height: 563 km
apogee height: 635 km
right ascension of ascending node: 153.2054°
argument of perigee: 66.6764°
revolutions per day: 14.89583939
mean anomaly at epoch: 293.9915°
orbit number at epoch: 57585

The dashed part of the orbit path shows where the satellite is in the earth's shadow,  

DLR